,,Stat1,,Stat2,,Stat3,,Stat4,,Wind1,,Wind1,
time,status,PR1M_SUM,status,RH1M_AVG,status,SR1M_AVG,status,TA1M_AVG,status,W1dAve1m,status,W1sAve1m,
1999-12-26, 00:01:00,VALID,0,VALID,99.6684,VALID,-0.0169808,VALID,20.0946,VALID,138,VALID,0,
1999-12-26, 00:02:00,VALID,0,VALID,99.6417,VALID,0,VALID,20.0948,VALID,138,VALID,0,
1999-12-26, 00:03:00,VALID,0,VALID,99.6646,VALID,0,VALID,20.0919,VALID,138,VALID,0,
1999-12-26, 00:04:00,VALID,0,VALID,99.6569,VALID,0,VALID,20.0951,VALID,138,VALID,0,
1999-12-26, 00:05:00,VALID,0,VALID,99.6798,VALID,-0.0339617,VALID,20.1242,VALID,138,VALID,0,
1999-12-26, 00:06:00,VALID,0,VALID,99.7192,VALID,0,VALID,20.1759,VALID,137,VALID,0,
1999-12-26, 00:07:00,VALID,0,VALID,99.723,VALID,-0.0509425,VALID,20.1988,VALID,121,VALID,0,
1999-12-26, 00:08:00,VALID,0.2,VALID,99.7065,VALID,-0.0339617,VALID,20.2018,VALID,96,VALID,0,
1999-12-26, 00:09:00,VALID,0,VALID,99.6582,VALID,-0.0169808,VALID,20.1759,VALID,90,VALID,0,
1999-12-26, 00:10:00,VALID,0.2,VALID,99.587,VALID,0,VALID,20.1371,VALID,83,VALID,0,
1999-12-26, 00:11:00,VALID,0.4,VALID,99.5425,VALID,-0.0169808,VALID,20.0986,VALID,63,VALID,0,
1999-12-26, 00:12:00,VALID,0.2,VALID,99.5336,VALID,0,VALID,20.0655,VALID,46,VALID,0,
1999-12-26, 00:13:01,VALID,0,VALID,99.5628,VALID,0,VALID,20.072,VALID,45,VALID,0,
1999-12-26, 00:14:00,VALID,0.2,VALID,99.5857,VALID,0,VALID,20.0886,VALID,45,VALID,0,
1999-12-26, 00:15:00,VALID,0,VALID,99.6035,VALID,0,VALID,20.0787,VALID,45,VALID,0,
1999-12-26, 00:16:00,VALID,0.2,VALID,99.6188,VALID,0,VALID,20.0916,VALID,47,VALID,0,
1999-12-26, 00:17:00,VALID,0,VALID,99.6429,VALID,0,VALID,20.0983,VALID,177,VALID,0,
1999-12-26, 00:18:00,VALID,0,VALID,99.6518,VALID,-0.0169808,VALID,20.1142,VALID,180,VALID,0,
1999-12-26, 00:19:00,VALID,0.2,VALID,99.6442,VALID,-0.0339617,VALID,20.121,VALID,180,VALID,0,
1999-12-26, 00:20:00,VALID,0,VALID,99.6162,VALID,0,VALID,20.1108,VALID,180,VALID,0,
1999-12-26, 00:21:00,VALID,0.2,VALID,99.5781,VALID,0,VALID,20.0884,VALID,199,VALID,0,
1999-12-26, 00:22:00,VALID,0,VALID,99.5921,VALID,-0.0169808,VALID,20.1016,VALID,199,VALID,0,
1999-12-26, 00:23:00,VALID,0.2,VALID,99.6239,VALID,-0.0169808,VALID,20.1078,VALID,113,VALID,0,
1999-12-26, 00:24:00,VALID,0,VALID,99.6455,VALID,0,VALID,20.1304,VALID,51,VALID,0,
1999-12-26, 00:25:00,VALID,0,VALID,99.5844,VALID,-0.0169808,VALID,20.118,VALID,10,VALID,0,
1999-12-26, 00:26:00,VALID,0,VALID,99.5488,VALID,-0.0339617,VALID,20.0856,VALID,339,VALID,0,
1999-12-26, 00:27:00,VALID,0,VALID,99.559,VALID,0,VALID,20.0854,VALID,312,VALID,0,
1999-12-26, 00:28:00,VALID,0,VALID,99.5717,VALID,0,VALID,20.0692,VALID,299,VALID,0,
1999-12-26, 00:29:00,VALID,0,VALID,99.5806,VALID,-0.0339617,VALID,20.063,VALID,300,VALID,0,
1999-12-26, 00:30:00,VALID,0,VALID,99.5768,VALID,0,VALID,20.0533,VALID,296,VALID,0,
1999-12-26, 00:31:00,VALID,0,VALID,99.6073,VALID,0,VALID,20.0436,VALID,301,VALID,0,
1999-12-26, 00:32:00,VALID,0,VALID,99.6213,VALID,-0.0339617,VALID,20.0436,VALID,299,VALID,0,
1999-12-26, 00:33:00,VALID,0,VALID,99.5997,VALID,-0.0339617,VALID,20.0342,VALID,304,VALID,0,
1999-12-26, 00:34:01,VALID,0,VALID,99.5959,VALID,-0.0169808,VALID,20.0046,VALID,310,VALID,0.446135,
1999-12-26, 00:35:00,VALID,0,VALID,99.5794,VALID,0,VALID,19.975,VALID,313,VALID,0.638148,
1999-12-26, 00:36:00,VALID,0,VALID,99.5781,VALID,-0.0169808,VALID,19.9531,VALID,315,VALID,0.762669,
1999-12-26, 00:37:00,VALID,0,VALID,99.6099,VALID,-0.0169808,VALID,19.9362,VALID,282,VALID,0.667441,
1999-12-26, 00:38:00,VALID,0,VALID,99.6277,VALID,-0.0509425,VALID,19.9265,VALID,275,VALID,0.659539,
1999-12-26, 00:39:00,VALID,0,VALID,99.6073,VALID,0,VALID,19.92,VALID,260,VALID,0.757617,
1999-12-26, 00:40:00,VALID,0,VALID,99.6162,VALID,0,VALID,19.9076,VALID,271,VALID,1.16343,
1999-12-26, 00:41:00,VALID,0,VALID,99.6048,VALID,0,VALID,19.9111,VALID,288,VALID,0.791797,
1999-12-26, 00:42:00,VALID,0,VALID,99.6366,VALID,-0.0339617,VALID,19.9143,VALID,300,VALID,0.626056,
1999-12-26, 00:43:00,VALID,0,VALID,99.601,VALID,-0.0339617,VALID,19.9011,VALID,317,VALID,0.998733,
1999-12-26, 00:44:00,VALID,0,VALID,99.5933,VALID,0,VALID,19.8852,VALID,313,VALID,0.896835,
1999-12-26, 00:45:00,VALID,0,VALID,99.5883,VALID,0,VALID,19.8753,VALID,294,VALID,0.812901,
1999-12-26, 00:46:00,VALID,0,VALID,99.6073,VALID,-0.0169808,VALID,19.8882,VALID,280,VALID,0.482897,
1999-12-26, 00:47:00,VALID,0,VALID,99.6188,VALID,0,VALID,19.8917,VALID,275,VALID,0.454359,
1999-12-26, 00:48:00,VALID,0,VALID,99.6035,VALID,-0.0169808,VALID,19.8924,VALID,282,VALID,0.46361,
1999-12-26, 00:49:00,VALID,0,VALID,99.6251,VALID,-0.0339617,VALID,19.8884,VALID,267,VALID,0.251202,
1999-12-26, 00:50:00,VALID,0,VALID,99.6162,VALID,0,VALID,19.8944,VALID,253,VALID,0.304688,
1999-12-26, 00:51:00,VALID,0,VALID,99.6264,VALID,0,VALID,19.8986,VALID,257,VALID,0.125,
1999-12-26, 00:52:00,VALID,0,VALID,99.648,VALID,0,VALID,19.9046,VALID,257,VALID,0.0522104,
1999-12-26, 00:53:00,VALID,0,VALID,99.62,VALID,0,VALID,19.8986,VALID,237,VALID,0.209671,
1999-12-26, 00:54:00,VALID,0,VALID,99.6328,VALID,-0.0169808,VALID,19.9016,VALID,225,VALID,0.0062934,
1999-12-26, 00:55:00,VALID,0,VALID,99.6595,VALID,-0.0169808,VALID,19.9011,VALID,227,VALID,0,
1999-12-26, 00:56:00,VALID,0,VALID,99.648,VALID,0,VALID,19.9108,VALID,205,VALID,0.339227,
1999-12-26, 00:57:00,VALID,0,VALID,99.6366,VALID,-0.0169808,VALID,19.9213,VALID,225,VALID,0.793945,
1999-12-26, 00:58:00,VALID,0,VALID,99.6378,VALID,0,VALID,19.9049,VALID,219,VALID,0.86022,
1999-12-26, 00:59:00,VALID,0,VALID,99.6391,VALID,-0.0339617,VALID,19.8889,VALID,219,VALID,1.001,
1999-12-26, 01:00:00,VALID,0,VALID,99.662,VALID,0,VALID,19.8919,VALID,210,VALID,0.655194,
1999-12-26, 01:01:00,VALID,0,VALID,99.6824,VALID,0.0849042,VALID,19.8837,VALID,208,VALID,0.563133,
1999-12-26, 01:02:00,VALID,0,VALID,99.6951,VALID,0.0679233,VALID,19.8939,VALID,233,VALID,0.470395,
1999-12-26, 01:03:00,VALID,0,VALID,99.7052,VALID,0.101885,VALID,19.8872,VALID,232,VALID,0.509868,
1999-12-26, 01:04:00,VALID,0,VALID,99.7269,VALID,0.101885,VALID,19.8904,VALID,232,VALID,0.717188,
1999-12-26, 01:05:00,VALID,0,VALID,99.7408,VALID,0.101885,VALID,19.9031,VALID,256,VALID,0.400735,
1999-12-26, 01:06:00,VALID,0,VALID,99.7383,VALID,0.0849042,VALID,19.9033,VALID,265,VALID,0.188939,
1999-12-26, 01:07:00,VALID,0,VALID,99.7574,VALID,0.101885,VALID,19.9227,VALID,267,VALID,0.341452,
1999-12-26, 01:08:01,VALID,0,VALID,99.7879,VALID,0.0849042,VALID,19.9387,VALID,272,VALID,0.393581,
1999-12-26, 01:09:00,VALID,0,VALID,99.7612,VALID,0.101885,VALID,19.9354,VALID,287,VALID,0.307432,
1999-12-26, 01:10:00,VALID,0,VALID,99.7536,VALID,0.118866,VALID,19.9352,VALID,295,VALID,0.379317,
1999-12-26, 01:11:00,VALID,0,VALID,99.7396,VALID,0.101885,VALID,19.926,VALID,292,VALID,0.0741235,
1999-12-26, 01:12:00,VALID,0,VALID,99.723,VALID,0.118866,VALID,19.9093,VALID,295,VALID,0.410473,
1999-12-26, 01:13:00,VALID,0,VALID,99.7472,VALID,0.118866,VALID,19.9133,VALID,287,VALID,0.0352618,
1999-12-26, 01:14:00,VALID,0,VALID,99.7675,VALID,0.101885,VALID,19.9163,VALID,324,VALID,0.169613,
1999-12-26, 01:15:00,VALID,0,VALID,99.7892,VALID,0.101885,VALID,19.9357,VALID,333,VALID,0.0740234,
1999-12-26, 01:16:00,VALID,0,VALID,99.8044,VALID,0,VALID,19.9566,VALID,285,VALID,0.025549,
1999-12-26, 01:17:00,VALID,0,VALID,99.7739,VALID,0,VALID,19.9531,VALID,286,VALID,0.243945,
1999-12-26, 01:18:00,VALID,0,VALID,99.7307,VALID,-0.0169808,VALID,19.914,VALID,284,VALID,0.11212,
1999-12-26, 01:19:01,VALID,0,VALID,99.7345,VALID,0,VALID,19.9111,VALID,276,VALID,0.0386402,
1999-12-26, 01:20:00,VALID,0,VALID,99.7536,VALID,0,VALID,19.9267,VALID,276,VALID,0,
1999-12-26, 01:21:00,VALID,0,VALID,99.7599,VALID,0,VALID,19.9496,VALID,276,VALID,0,
1999-12-26, 01:22:00,VALID,0,VALID,99.7548,VALID,0,VALID,19.9531,VALID,237,VALID,0.273649,
1999-12-26, 01:23:00,VALID,0,VALID,99.6824,VALID,0,VALID,19.9337,VALID,198,VALID,0.51727,
1999-12-26, 01:24:00,VALID,0,VALID,99.6544,VALID,-0.0339617,VALID,19.8949,VALID,198,VALID,0.516242,
1999-12-26, 01:25:00,VALID,0,VALID,99.6696,VALID,0,VALID,19.8852,VALID,217,VALID,0.304487,
1999-12-26, 01:26:00,VALID,0,VALID,99.6722,VALID,0,VALID,19.8785,VALID,204,VALID,0.466346,
1999-12-26, 01:27:00,VALID,0,VALID,99.6976,VALID,0.0169808,VALID,19.8917,VALID,209,VALID,0.426398,
1999-12-26, 01:28:00,VALID,0,VALID,99.6785,VALID,0,VALID,19.8882,VALID,203,VALID,0.537538,
1999-12-26, 01:29:00,VALID,0,VALID,99.7002,VALID,0,VALID,19.9046,VALID,208,VALID,0.402027,
1999-12-26, 01:30:01,VALID,0,VALID,99.6963,VALID,0.0339617,VALID,19.9108,VALID,236,VALID,0.626085,
1999-12-26, 01:31:00,VALID,0,VALID,99.6696,VALID,0.0169808,VALID,19.9041,VALID,240,VALID,0.821715,
1999-12-26, 01:32:00,VALID,0,VALID,99.6684,VALID,0,VALID,19.9108,VALID,237,VALID,0.80736,
1999-12-26, 01:33:00,VALID,0,VALID,99.6696,VALID,0,VALID,19.9146,VALID,243,VALID,0.756641,
1999-12-26, 01:34:00,VALID,0,VALID,99.6468,VALID,0,VALID,19.9046,VALID,237,VALID,0.83636,
1999-12-26, 01:35:00,VALID,0,VALID,99.6646,VALID,0,VALID,19.8947,VALID,241,VALID,0.774239,
1999-12-26, 01:36:00,VALID,0,VALID,99.6633,VALID,-0.0169808,VALID,19.9046,VALID,248,VALID,0.422086,
1999-12-26, 01:37:00,VALID,0,VALID,99.6671,VALID,0,VALID,19.9113,VALID,253,VALID,0.5606,
1999-12-26, 01:38:00,VALID,0,VALID,99.6773,VALID,0,VALID,19.918,VALID,253,VALID,0.362253,
1999-12-26, 01:39:00,VALID,0,VALID,99.676,VALID,-0.0169808,VALID,19.9213,VALID,243,VALID,0.390214,
1999-12-26, 01:40:00,VALID,0,VALID,99.6709,VALID,-0.0169808,VALID,19.9175,VALID,245,VALID,0.228125,
1999-12-26, 01:41:01,VALID,0,VALID,99.6925,VALID,0,VALID,19.9404,VALID,245,VALID,0.122932,
1999-12-26, 01:42:00,VALID,0,VALID,99.7078,VALID,-0.0169808,VALID,19.9536,VALID,244,VALID,0,
1999-12-26, 01:43:00,VALID,0,VALID,99.7103,VALID,0,VALID,19.9568,VALID,244,VALID,0.116268,
1999-12-26, 01:44:00,VALID,0,VALID,99.6773,VALID,0,VALID,19.9533,VALID,249,VALID,0.274493,
1999-12-26, 01:45:00,VALID,0,VALID,99.6633,VALID,0,VALID,19.9436,VALID,233,VALID,0.394848,
1999-12-26, 01:46:00,VALID,0,VALID,99.6633,VALID,0,VALID,19.9245,VALID,223,VALID,0.588086,
1999-12-26, 01:47:00,VALID,0,VALID,99.6442,VALID,0,VALID,19.9113,VALID,207,VALID,0.802973,
1999-12-26, 01:48:00,VALID,0,VALID,99.6442,VALID,0,VALID,19.8884,VALID,197,VALID,0.802787,
1999-12-26, 01:49:00,VALID,0,VALID,99.6289,VALID,-0.0169808,VALID,19.8698,VALID,171,VALID,0.914274,
1999-12-26, 01:50:00,VALID,0,VALID,99.6429,VALID,0,VALID,19.8566,VALID,156,VALID,0.865954,
1999-12-26, 01:51:01,VALID,0,VALID,99.6518,VALID,0,VALID,19.8332,VALID,150,VALID,0.691211,
1999-12-26, 01:52:01,VALID,0,VALID,99.6684,VALID,-0.0339617,VALID,19.8305,VALID,150,VALID,0.723606,
1999-12-26, 01:53:00,VALID,0,VALID,99.6671,VALID,-0.0339617,VALID,19.8176,VALID,203,VALID,0.468945,
1999-12-26, 01:54:00,VALID,0,VALID,99.6798,VALID,-0.0169808,VALID,19.8079,VALID,213,VALID,0.630279,
1999-12-26, 01:55:00,VALID,0,VALID,99.6887,VALID,-0.0339617,VALID,19.7885,VALID,194,VALID,1.02217,
1999-12-26, 01:56:00,VALID,0,VALID,99.662,VALID,-0.0339617,VALID,19.7758,VALID,199,VALID,0.975361,
1999-12-26, 01:57:00,VALID,0,VALID,99.6925,VALID,-0.0169808,VALID,19.7793,VALID,220,VALID,0.759415,
1999-12-26, 01:58:00,VALID,0,VALID,99.6887,VALID,-0.0509425,VALID,19.7758,VALID,232,VALID,0.716639,
1999-12-26, 01:59:00,VALID,0,VALID,99.6773,VALID,-0.0339617,VALID,19.7823,VALID,233,VALID,0.608553,
1999-12-26, 02:00:00,VALID,0,VALID,99.6658,VALID,-0.0339617,VALID,19.7691,VALID,219,VALID,0.727385,
1999-12-26, 02:01:00,VALID,0,VALID,99.6264,VALID,0,VALID,19.7656,VALID,217,VALID,0.776442,
1999-12-26, 02:02:00,VALID,0,VALID,99.6162,VALID,0,VALID,19.7561,VALID,210,VALID,0.77504,
1999-12-26, 02:03:01,VALID,0,VALID,99.5946,VALID,0,VALID,19.7333,VALID,178,VALID,1.10177,
1999-12-26, 02:04:00,VALID,0,VALID,99.5501,VALID,0,VALID,19.7407,VALID,192,VALID,0.922637,
1999-12-26, 02:05:00,VALID,0,VALID,99.5374,VALID,0,VALID,19.7109,VALID,171,VALID,0.763091,
1999-12-26, 02:06:00,VALID,0,VALID,99.5425,VALID,-0.0169808,VALID,19.7044,VALID,201,VALID,0.761719,
1999-12-26, 02:07:00,VALID,0,VALID,99.5272,VALID,0,VALID,19.7208,VALID,199,VALID,0.882612,
1999-12-26, 02:08:00,VALID,0,VALID,99.517,VALID,0,VALID,19.7183,VALID,195,VALID,0.695313,
1999-12-26, 02:09:00,VALID,0,VALID,99.5081,VALID,0,VALID,19.7017,VALID,208,VALID,0.400781,
1999-12-26, 02:10:00,VALID,0,VALID,99.5031,VALID,-0.0169808,VALID,19.7049,VALID,212,VALID,0.177154,
1999-12-26, 02:11:00,VALID,0,VALID,99.5069,VALID,0,VALID,19.7114,VALID,205,VALID,0.355769,
1999-12-26, 02:12:00,VALID,0,VALID,99.4687,VALID,0,VALID,19.7049,VALID,202,VALID,0.420819,
1999-12-26, 02:13:00,VALID,0,VALID,99.4636,VALID,-0.0169808,VALID,19.6888,VALID,197,VALID,0.65076,
1999-12-26, 02:14:01,VALID,0,VALID,99.4573,VALID,-0.0169808,VALID,19.6691,VALID,185,VALID,0.447574,
1999-12-26, 02:15:00,VALID,0,VALID,99.4357,VALID,0,VALID,19.6689,VALID,179,VALID,0.310444,
1999-12-26, 02:16:00,VALID,0,VALID,99.4318,VALID,0.101885,VALID,19.6579,VALID,181,VALID,0.49707,
1999-12-26, 02:17:00,VALID,0,VALID,99.4344,VALID,0.101885,VALID,19.6614,VALID,182,VALID,0.460478,
1999-12-26, 02:18:00,VALID,0,VALID,99.4204,VALID,0.101885,VALID,19.6482,VALID,175,VALID,0.425781,
1999-12-26, 02:19:00,VALID,0,VALID,99.4204,VALID,0.101885,VALID,19.6326,VALID,183,VALID,0.473116,
1999-12-26, 02:20:00,VALID,0,VALID,99.4293,VALID,0.0679233,VALID,19.6229,VALID,185,VALID,0.327492,
1999-12-26, 02:21:00,VALID,0,VALID,99.4395,VALID,0.0849042,VALID,19.6194,VALID,198,VALID,0.433488,
1999-12-26, 02:22:00,VALID,0,VALID,99.4598,VALID,0.0509425,VALID,19.6261,VALID,217,VALID,0.452508,
1999-12-26, 02:23:00,VALID,0,VALID,99.4713,VALID,0.0849042,VALID,19.6393,VALID,197,VALID,0.44112,
1999-12-26, 02:24:00,VALID,0,VALID,99.4675,VALID,0.101885,VALID,19.6231,VALID,208,VALID,0.510346,
1999-12-26, 02:25:00,VALID,0,VALID,99.4776,VALID,0.0849042,VALID,19.6226,VALID,219,VALID,0.548353,
1999-12-26, 02:26:00,VALID,0,VALID,99.4789,VALID,0.101885,VALID,19.6231,VALID,226,VALID,0.412212,
1999-12-26, 02:27:00,VALID,0,VALID,99.4789,VALID,0.0849042,VALID,19.6094,VALID,230,VALID,0.598242,
1999-12-26, 02:28:00,VALID,0,VALID,99.4585,VALID,0.0509425,VALID,19.6067,VALID,228,VALID,0.645059,
1999-12-26, 02:29:00,VALID,0,VALID,99.4776,VALID,0.101885,VALID,19.5997,VALID,207,VALID,0.31582,
1999-12-26, 02:30:00,VALID,0,VALID,99.4471,VALID,0.0679233,VALID,19.6002,VALID,220,VALID,0.302998,
1999-12-26, 02:31:00,VALID,0,VALID,99.4306,VALID,-0.0169808,VALID,19.5953,VALID,223,VALID,0.486698,
1999-12-26, 02:32:00,VALID,0,VALID,99.428,VALID,-0.0509425,VALID,19.5791,VALID,215,VALID,0.775441,
1999-12-26, 02:33:00,VALID,0,VALID,99.428,VALID,0,VALID,19.5659,VALID,221,VALID,0.705729,
1999-12-26, 02:34:00,VALID,0,VALID,99.4331,VALID,0,VALID,19.5624,VALID,216,VALID,0.786318,
1999-12-26, 02:35:00,VALID,0,VALID,99.4331,VALID,0,VALID,19.5664,VALID,220,VALID,0.9044,
1999-12-26, 02:36:00,VALID,0,VALID,99.4662,VALID,-0.0169808,VALID,19.5497,VALID,221,VALID,1.32216,
1999-12-26, 02:37:00,VALID,0,VALID,99.4446,VALID,0,VALID,19.5368,VALID,222,VALID,1.12961,
1999-12-26, 02:38:00,VALID,0,VALID,99.4471,VALID,0,VALID,19.5241,VALID,226,VALID,1.14884,
1999-12-26, 02:39:00,VALID,0,VALID,99.3899,VALID,0,VALID,19.5047,VALID,215,VALID,1.53721,
1999-12-26, 02:40:00,VALID,0,VALID,99.3199,VALID,-0.0339617,VALID,19.4786,VALID,212,VALID,1.4072,
1999-12-26, 02:41:00,VALID,0,VALID,99.2258,VALID,-0.0169808,VALID,19.4727,VALID,217,VALID,1.60895,
1999-12-26, 02:42:00,VALID,0,VALID,99.1216,VALID,-0.0169808,VALID,19.4694,VALID,215,VALID,1.71875,
1999-12-26, 02:43:00,VALID,0,VALID,99.0224,VALID,-0.0169808,VALID,19.4729,VALID,218,VALID,1.6222,
1999-12-26, 02:44:00,VALID,0,VALID,98.9245,VALID,0,VALID,19.46,VALID,221,VALID,1.62048,
1999-12-26, 02:45:00,VALID,0,VALID,98.8164,VALID,-0.0169808,VALID,19.463,VALID,217,VALID,1.50469,
1999-12-26, 02:46:00,VALID,0,VALID,98.7134,VALID,-0.0339617,VALID,19.4468,VALID,219,VALID,1.42927,
1999-12-26, 02:47:00,VALID,0,VALID,98.6511,VALID,0,VALID,19.4336,VALID,219,VALID,1.42228,
1999-12-26, 02:48:00,VALID,0,VALID,98.604,VALID,0,VALID,19.4237,VALID,231,VALID,1.62669,
1999-12-26, 02:49:00,VALID,0,VALID,98.5519,VALID,0,VALID,19.4344,VALID,224,VALID,1.61022,
1999-12-26, 02:50:00,VALID,0,VALID,98.4921,VALID,-0.0339617,VALID,19.4244,VALID,226,VALID,0.92866,
1999-12-26, 02:51:00,VALID,0,VALID,98.5227,VALID,-0.0509425,VALID,19.4078,VALID,225,VALID,1.19141,
1999-12-26, 02:52:00,VALID,0,VALID,98.5595,VALID,-0.0339617,VALID,19.4082,VALID,245,VALID,1.73184,
1999-12-26, 02:53:00,VALID,0,VALID,98.6015,VALID,-0.0169808,VALID,19.3981,VALID,238,VALID,0.970588,
1999-12-26, 02:54:00,VALID,0,VALID,98.6167,VALID,0,VALID,19.3986,VALID,231,VALID,0.450452,
1999-12-26, 02:55:00,VALID,0,VALID,98.618,VALID,0,VALID,19.3918,VALID,230,VALID,0.397289,
1999-12-26, 02:56:00,VALID,0,VALID,98.6435,VALID,0,VALID,19.3792,VALID,245,VALID,0.913218,
1999-12-26, 02:57:00,VALID,0,VALID,98.7579,VALID,-0.0169808,VALID,19.3628,VALID,216,VALID,0.865709,
1999-12-26, 02:58:00,VALID,0,VALID,98.8177,VALID,0,VALID,19.3498,VALID,230,VALID,0.84707,
1999-12-26, 02:59:00,VALID,0,VALID,98.8431,VALID,-0.0169808,VALID,19.3501,VALID,222,VALID,0.821837,
1999-12-26, 03:00:00,VALID,0,VALID,98.8634,VALID,-0.0509425,VALID,19.3272,VALID,211,VALID,0.637669,
1999-12-26, 03:01:00,VALID,0,VALID,98.8787,VALID,-0.0169808,VALID,19.2986,VALID,222,VALID,0.603674,
1999-12-26, 03:02:00,VALID,0,VALID,98.9029,VALID,0,VALID,19.2625,VALID,232,VALID,0.592928,
1999-12-26, 03:03:00,VALID,0,VALID,98.955,VALID,-0.0169808,VALID,19.2464,VALID,232,VALID,0.133008,
1999-12-26, 03:04:00,VALID,0,VALID,98.9703,VALID,0,VALID,19.2141,VALID,232,VALID,0,
1999-12-26, 03:05:00,VALID,0,VALID,99.0122,VALID,-0.0169808,VALID,19.2014,VALID,233,VALID,0,
1999-12-26, 03:06:00,VALID,0,VALID,99.0593,VALID,-0.0169808,VALID,19.1817,VALID,248,VALID,0,
1999-12-26, 03:07:00,VALID,0,VALID,99.1089,VALID,-0.0339617,VALID,19.182,VALID,275,VALID,0,
1999-12-26, 03:08:01,VALID,0,VALID,99.1305,VALID,-0.0169808,VALID,19.169,VALID,296,VALID,0,
1999-12-26, 03:09:00,VALID,0,VALID,99.1216,VALID,-0.0169808,VALID,19.1397,VALID,296,VALID,0,
1999-12-26, 03:10:00,VALID,0,VALID,99.1724,VALID,-0.0679233,VALID,19.1236,VALID,296,VALID,0,
1999-12-26, 03:11:00,VALID,0,VALID,99.072,VALID,-0.0169808,VALID,19.0557,VALID,296,VALID,0,
1999-12-26, 03:12:00,VALID,0,VALID,99.0237,VALID,-0.0679233,VALID,19.0077,VALID,296,VALID,0,
1999-12-26, 03:13:00,VALID,0,VALID,99.0834,VALID,0,VALID,18.991,VALID,296,VALID,0,
1999-12-26, 03:14:00,VALID,0,VALID,99.1139,VALID,-0.0169808,VALID,18.9885,VALID,286,VALID,0,
1999-12-26, 03:15:00,VALID,0,VALID,99.2017,VALID,-0.0849042,VALID,18.9883,VALID,262,VALID,0,
1999-12-26, 03:16:00,VALID,0,VALID,99.1635,VALID,0.0339617,VALID,18.9677,VALID,143,VALID,0.864901,
1999-12-26, 03:17:00,VALID,0,VALID,99.2182,VALID,0.0679233,VALID,18.9575,VALID,147,VALID,0.563978,
1999-12-26, 03:18:00,VALID,0,VALID,99.3912,VALID,0.0849042,VALID,18.9968,VALID,152,VALID,0.156901,
1999-12-26, 03:19:00,VALID,0,VALID,99.3975,VALID,0.0849042,VALID,18.9961,VALID,152,VALID,0,
1999-12-26, 03:20:00,VALID,0,VALID,99.3937,VALID,0.0679233,VALID,19,VALID,152,VALID,0,
1999-12-26, 03:21:00,VALID,0,VALID,99.3899,VALID,0.0339617,VALID,18.9973,VALID,152,VALID,0,
1999-12-26, 03:22:00,VALID,0,VALID,99.4229,VALID,0.0509425,VALID,18.9903,VALID,152,VALID,0,
1999-12-26, 03:23:00,VALID,0,VALID,99.4229,VALID,0.0679233,VALID,18.9834,VALID,129,VALID,0.297877,
1999-12-26, 03:24:00,VALID,0,VALID,99.3161,VALID,0.0339617,VALID,18.9259,VALID,134,VALID,0.509924,
1999-12-26, 03:25:00,VALID,0,VALID,99.3924,VALID,0.0339617,VALID,18.9098,VALID,152,VALID,0.259502,
1999-12-26, 03:26:00,VALID,0,VALID,99.4382,VALID,0.0339617,VALID,18.9289,VALID,169,VALID,0.112664,
1999-12-26, 03:27:00,VALID,0,VALID,99.4268,VALID,0.0509425,VALID,18.9361,VALID,168,VALID,0,
1999-12-26, 03:28:00,VALID,0,VALID,99.3848,VALID,0.0509425,VALID,18.8966,VALID,160,VALID,0,
1999-12-26, 03:29:01,VALID,0,VALID,99.3301,VALID,0.0679233,VALID,18.8483,VALID,124,VALID,0,
1999-12-26, 03:30:01,VALID,0,VALID,99.2971,VALID,0.0509425,VALID,18.8093,VALID,108,VALID,0,
1999-12-26, 03:31:00,VALID,0,VALID,99.3479,VALID,-0.0169808,VALID,18.8137,VALID,99,VALID,0,
1999-12-26, 03:32:00,VALID,0,VALID,99.414,VALID,0,VALID,18.8401,VALID,99,VALID,0,
1999-12-26, 03:33:00,VALID,0,VALID,99.5298,VALID,-0.0339617,VALID,18.8791,VALID,99,VALID,0,
1999-12-26, 03:34:00,VALID,0,VALID,99.6048,VALID,-0.0339617,VALID,18.9144,VALID,99,VALID,0,
1999-12-26, 03:35:00,VALID,0,VALID,99.6277,VALID,0,VALID,18.9109,VALID,111,VALID,0,
1999-12-26, 03:36:00,VALID,0,VALID,99.6328,VALID,0,VALID,18.9079,VALID,119,VALID,0,
1999-12-26, 03:37:00,VALID,0,VALID,99.6417,VALID,-0.0509425,VALID,18.8881,VALID,103,VALID,0.324113,
1999-12-26, 03:38:00,VALID,0,VALID,99.6913,VALID,-0.0169808,VALID,18.9079,VALID,102,VALID,0.750411,
1999-12-26, 03:39:00,VALID,0,VALID,99.7243,VALID,-0.0169808,VALID,18.9176,VALID,95,VALID,0.887109,
1999-12-26, 03:40:00,VALID,0,VALID,99.7739,VALID,-0.0169808,VALID,18.9435,VALID,100,VALID,0.76098,
1999-12-26, 03:41:01,VALID,0,VALID,99.8426,VALID,-0.0679233,VALID,18.9853,VALID,91,VALID,0.600586,
1999-12-26, 03:42:00,VALID,0,VALID,99.8655,VALID,-0.0169808,VALID,19.0176,VALID,103,VALID,0.715583,
1999-12-26, 03:43:00,VALID,0,VALID,99.8795,VALID,-0.0169808,VALID,19.0372,VALID,97,VALID,0.82728,
1999-12-26, 03:44:00,VALID,0,VALID,99.8934,VALID,0,VALID,19.0499,VALID,109,VALID,0.999399,
1999-12-26, 03:45:00,VALID,0,VALID,99.9125,VALID,-0.0169808,VALID,19.0666,VALID,113,VALID,0.750601,
1999-12-26, 03:46:00,VALID,0,VALID,99.929,VALID,0,VALID,19.0915,VALID,115,VALID,0.545397,
1999-12-26, 03:47:00,VALID,0,VALID,99.9367,VALID,-0.0339617,VALID,19.1176,VALID,115,VALID,0.41139,
1999-12-26, 03:48:00,VALID,0,VALID,99.9596,VALID,-0.0339617,VALID,19.1307,VALID,115,VALID,0.247738,
1999-12-26, 03:49:00,VALID,0,VALID,99.9659,VALID,-0.0169808,VALID,19.14,VALID,115,VALID,0.0290465,
1999-12-26, 03:50:00,VALID,0,VALID,99.9825,VALID,0,VALID,19.179,VALID,115,VALID,0,
1999-12-26, 03:51:00,VALID,0,VALID,99.9837,VALID,0,VALID,19.2046,VALID,115,VALID,0,
1999-12-26, 03:52:00,VALID,0,VALID,99.9797,VALID,-0.0679233,VALID,19.2113,VALID,115,VALID,0,
1999-12-26, 03:53:00,VALID,0,VALID,99.9748,VALID,0,VALID,19.2078,VALID,115,VALID,0,
1999-12-26, 03:54:00,VALID,0,VALID,99.9774,VALID,0,VALID,19.2275,VALID,115,VALID,0,
1999-12-26, 03:55:00,VALID,0,VALID,99.9822,VALID,-0.0339617,VALID,19.2272,VALID,115,VALID,0,
1999-12-26, 03:56:00,VALID,0,VALID,99.9685,VALID,0,VALID,19.2175,VALID,115,VALID,0,
1999-12-26, 03:57:00,VALID,0,VALID,99.9723,VALID,0,VALID,19.2305,VALID,115,VALID,0,
1999-12-26, 03:58:00,VALID,0,VALID,99.9837,VALID,0,VALID,19.2471,VALID,115,VALID,0,
1999-12-26, 03:59:00,VALID,0,VALID,99.9886,VALID,0,VALID,19.2404,VALID,115,VALID,0,
1999-12-26, 04:00:00,VALID,0,VALID,99.9977,VALID,0,VALID,19.2399,VALID,115,VALID,0,
1999-12-26, 04:01:00,VALID,0,VALID,99.998,VALID,0,VALID,19.2531,VALID,115,VALID,0,
1999-12-26, 04:02:00,VALID,0,VALID,99.999,VALID,0,VALID,19.2655,VALID,115,VALID,0,
1999-12-26, 04:03:00,VALID,0,VALID,99.998,VALID,0,VALID,19.2628,VALID,115,VALID,0.165913,
1999-12-26, 04:04:00,VALID,0,VALID,99.9934,VALID,-0.0169808,VALID,19.2526,VALID,115,VALID,0.0257812,
1999-12-26, 04:05:00,VALID,0,VALID,99.9957,VALID,0,VALID,19.2531,VALID,182,VALID,0,
1999-12-26, 04:06:00,VALID,0,VALID,99.9934,VALID,0,VALID,19.2399,VALID,189,VALID,0,
1999-12-26, 04:07:00,VALID,0,VALID,99.999,VALID,0,VALID,19.2464,VALID,189,VALID,0,
1999-12-26, 04:08:00,VALID,0,VALID,100,VALID,0,VALID,19.2563,VALID,189,VALID,0,
1999-12-26, 04:09:00,VALID,0,VALID,100,VALID,-0.0169808,VALID,19.2558,VALID,189,VALID,0,
1999-12-26, 04:10:00,VALID,0,VALID,100,VALID,0,VALID,19.2658,VALID,189,VALID,0,
1999-12-26, 04:11:00,VALID,0,VALID,100,VALID,-0.0339617,VALID,19.2596,VALID,189,VALID,0,
1999-12-26, 04:12:00,VALID,0,VALID,100,VALID,0,VALID,19.2693,VALID,189,VALID,0,
1999-12-26, 04:13:00,VALID,0,VALID,100,VALID,-0.0169808,VALID,19.269,VALID,189,VALID,0,